| time (UTC) | temp F | wind direction | speed MPH | gust MPH | rain 1hr in | rain 24hr in | rain mn in | humidity % | barometer mb |
| 20260503015232 | 55 | 1 | 0.0 | 0.0 | 0.00 | 0.02 | 0.02 | 64 | 1036.6 |
| 20260503014728 | 56 | 1 | 0.0 | 0.0 | 0.00 | 0.02 | 0.02 | 64 | 1036.5 |
| 20260503014226 | 56 | 1 | 0.0 | 0.0 | 0.00 | 0.02 | 0.02 | 64 | 1036.4 |
| 20260503013723 | 56 | 1 | 0.0 | 0.0 | 0.00 | 0.02 | 0.02 | 62 | 1036.2 |
| 20260503013221 | 56 | 1 | 0.0 | 0.0 | 0.00 | 0.02 | 0.02 | 61 | 1036.4 |
| 20260503012718 | 56 | 1 | 0.0 | 0.0 | 0.00 | 0.02 | 0.02 | 60 | 1036.1 |
| 20260503012215 | 57 | 1 | 0.0 | 0.0 | 0.00 | 0.02 | 0.02 | 60 | 1035.9 |
| 20260503011711 | 57 | 1 | 0.0 | 0.0 | 0.00 | 0.02 | 0.02 | 62 | 1036.1 |
| 20260503011209 | 57 | 1 | 0.0 | 0.0 | 0.00 | 0.02 | 0.02 | 59 | 1036.1 |
| 20260503010704 | 57 | 1 | 0.0 | 0.0 | 0.00 | 0.02 | 0.02 | 59 | 1035.9 |
| 20260503010202 | 57 | 1 | 0.0 | 0.0 | 0.00 | 0.02 | 0.02 | 57 | 1035.8 |
| 20260503005659 | 58 | 1 | 0.0 | 0.0 | 0.00 | 0.02 | 0.02 | 57 | 1035.9 |
| 20260503005157 | 58 | 1 | 0.0 | 0.0 | 0.00 | 0.02 | 0.02 | 55 | 1035.9 |
| 20260503004653 | 59 | 1 | 0.0 | 0.0 | 0.00 | 0.02 | 0.02 | 54 | 1035.8 |
| 20260503004151 | 59 | 1 | 0.0 | 0.0 | 0.00 | 0.02 | 0.02 | 53 | 1035.8 |
| 20260503003648 | 59 | 1 | 0.0 | 0.0 | 0.00 | 0.02 | 0.02 | 53 | 1035.5 |
| 20260503003145 | 60 | 1 | 0.0 | 0.0 | 0.00 | 0.02 | 0.02 | 51 | 1035.4 |
| 20260503002641 | 60 | 1 | 0.0 | 0.0 | 0.00 | 0.02 | 0.02 | 52 | 1035.5 |
| 20260503002138 | 60 | 1 | 0.0 | 0.0 | 0.00 | 0.02 | 0.02 | 52 | 1035.4 |
| 20260503001634 | 61 | 1 | 0.0 | 0.0 | 0.00 | 0.02 | 0.02 | 52 | 1035.4 |
| 20260503001131 | 61 | 1 | 0.0 | 0.0 | 0.00 | 0.02 | 0.02 | 51 | 1035.3 |
| 20260503000629 | 62 | 1 | 0.0 | 0.0 | 0.00 | 0.02 | 0.02 | 52 | 1035.2 |
| 20260503000126 | 62 | 1 | 0.0 | 0.0 | 0.00 | 0.02 | 0.02 | 52 | 1035.1 |
| 20260502235622 | 62 | 1 | 0.0 | 0.0 | 0.00 | 0.02 | 0.02 | 48 | 1035.0 |
| 20260502235121 | 62 | 1 | 0.0 | 0.0 | 0.00 | 0.02 | 0.02 | 48 | 1035.2 |
| 20260502234616 | 63 | 1 | 0.0 | 0.0 | 0.00 | 0.02 | 0.02 | 51 | 1034.7 |
| 20260502234115 | 63 | 28 | 0.0 | 0.0 | 0.00 | 0.02 | 0.02 | 52 | 1034.6 |
| 20260502233610 | 63 | 3 | 0.0 | 0.0 | 0.00 | 0.02 | 0.02 | 55 | 1034.7 |
| 20260502233107 | 64 | 351 | 0.0 | 0.0 | 0.00 | 0.02 | 0.02 | 52 | 1034.7 |
| 20260502232603 | 64 | 43 | 0.0 | 0.0 | 0.00 | 0.02 | 0.02 | 51 | 1034.7 |
| 20260502232101 | 64 | 54 | 0.0 | 0.0 | 0.00 | 0.02 | 0.02 | 53 | 1034.6 |
| 20260502231557 | 64 | 78 | 0.0 | 0.0 | 0.00 | 0.02 | 0.02 | 53 | 1034.6 |
| 20260502231055 | 64 | 19 | 0.0 | 0.0 | 0.00 | 0.02 | 0.02 | 48 | 1035.0 |
| 20260502230553 | 65 | 44 | 0.0 | 0.0 | 0.00 | 0.02 | 0.02 | 45 | 1034.7 |
| 20260502230051 | 65 | 12 | 0.0 | 0.0 | 0.00 | 0.02 | 0.02 | 45 | 1034.7 |
| 20260502225546 | 65 | 104 | 0.0 | 0.0 | 0.00 | 0.02 | 0.02 | 47 | 1034.6 |
| 20260502225044 | 65 | 49 | 0.0 | 0.0 | 0.00 | 0.02 | 0.02 | 44 | 1034.5 |
| 20260502224540 | 66 | 183 | 0.0 | 0.0 | 0.00 | 0.02 | 0.02 | 44 | 1034.5 |
| 20260502224037 | 66 | 180 | 2.0 | 2.0 | 0.00 | 0.02 | 0.02 | 45 | 1034.6 |
| 20260502223535 | 66 | 344 | 0.0 | 0.0 | 0.00 | 0.02 | 0.02 | 47 | 1034.7 |
| 20260502223033 | 66 | 22 | 0.0 | 0.0 | 0.00 | 0.02 | 0.02 | 47 | 1034.5 |
| 20260502222530 | 67 | 125 | 1.0 | 2.0 | 0.00 | 0.02 | 0.02 | 43 | 1034.7 |
| 20260502222026 | 67 | 169 | 2.0 | 3.0 | 0.00 | 0.02 | 0.02 | 40 | 1034.5 |
| 20260502221522 | 67 | 53 | 0.0 | 0.0 | 0.00 | 0.02 | 0.02 | 45 | 1034.6 |
| 20260502221020 | 67 | 139 | 1.0 | 2.0 | 0.00 | 0.02 | 0.02 | 49 | 1034.5 |
| 20260502220515 | 68 | 29 | 2.0 | 2.0 | 0.00 | 0.02 | 0.02 | 42 | 1034.7 |
| 20260502220012 | 70 | 11 | 0.0 | 0.0 | 0.00 | 0.02 | 0.02 | 42 | 1034.5 |
| 20260502215509 | 71 | 173 | 2.0 | 2.0 | 0.00 | 0.02 | 0.02 | 38 | 1034.4 |
| 20260502215006 | 69 | 168 | 1.0 | 2.0 | 0.00 | 0.02 | 0.02 | 40 | 1034.6 |
| 20260502214503 | 69 | 162 | 1.0 | 2.0 | 0.00 | 0.02 | 0.02 | 42 | 1034.4 |
| 20260502214000 | 69 | 92 | 1.0 | 1.0 | 0.00 | 0.02 | 0.02 | 44 | 1034.4 |
| 20260502213456 | 69 | 204 | 0.0 | 0.0 | 0.00 | 0.02 | 0.02 | 43 | 1034.3 |
| 20260502212955 | 69 | 158 | 0.0 | 2.0 | 0.00 | 0.02 | 0.02 | 40 | 1034.2 |
| 20260502212453 | 69 | 188 | 1.0 | 1.0 | 0.00 | 0.02 | 0.02 | 37 | 1034.1 |
| 20260502211950 | 68 | 169 | 0.0 | 1.0 | 0.00 | 0.02 | 0.02 | 40 | 1034.4 |
| 20260502211446 | 69 | 170 | 2.0 | 3.0 | 0.00 | 0.02 | 0.02 | 40 | 1034.5 |
| 20260502210944 | 68 | 154 | 1.0 | 2.0 | 0.00 | 0.02 | 0.02 | 39 | 1034.3 |
| 20260502210440 | 68 | 14 | 0.0 | 0.0 | 0.00 | 0.02 | 0.02 | 43 | 1034.3 |
| 20260502205938 | 68 | 109 | 1.0 | 2.0 | 0.00 | 0.02 | 0.02 | 43 | 1034.3 |
| 20260502205434 | 68 | 162 | 1.0 | 2.0 | 0.00 | 0.02 | 0.02 | 40 | 1034.4 |
| 20260502204931 | 68 | 55 | 0.0 | 0.0 | 0.00 | 0.02 | 0.02 | 47 | 1034.4 |
| 20260502204428 | 69 | 172 | 1.0 | 1.0 | 0.00 | 0.02 | 0.02 | 41 | 1034.6 |
| 20260502203926 | 69 | 86 | 1.0 | 1.0 | 0.00 | 0.02 | 0.02 | 38 | 1034.5 |
| 20260502203423 | 69 | 55 | 0.0 | 1.0 | 0.00 | 0.02 | 0.02 | 39 | 1034.5 |
| 20260502202919 | 70 | 161 | 2.0 | 2.0 | 0.00 | 0.02 | 0.02 | 38 | 1034.4 |
| 20260502202416 | 69 | 106 | 0.0 | 0.0 | 0.00 | 0.02 | 0.02 | 40 | 1034.7 |
| 20260502201914 | 69 | 68 | 1.0 | 1.0 | 0.00 | 0.02 | 0.02 | 38 | 1034.5 |
| 20260502201409 | 69 | 194 | 3.0 | 3.0 | 0.00 | 0.02 | 0.02 | 35 | 1034.6 |
| 20260502200907 | 69 | 31 | 0.0 | 0.0 | 0.00 | 0.02 | 0.02 | 40 | 1034.6 |
| 20260502200402 | 69 | 72 | 0.0 | 0.0 | 0.00 | 0.02 | 0.02 | 40 | 1034.6 |
| 20260502195901 | 68 | 339 | 0.0 | 0.0 | 0.00 | 0.02 | 0.02 | 38 | 1034.8 |
| 20260502195357 | 68 | 174 | 3.0 | 4.0 | 0.00 | 0.02 | 0.02 | 36 | 1034.7 |
| 20260502194853 | 70 | 181 | 2.0 | 3.0 | 0.00 | 0.02 | 0.02 | 38 | 1034.7 |
| 20260502194350 | 69 | 62 | 0.0 | 0.0 | 0.00 | 0.02 | 0.02 | 39 | 1034.4 |
| 20260502193846 | 70 | 334 | 2.0 | 2.0 | 0.00 | 0.02 | 0.02 | 43 | 1034.5 |
| 20260502193344 | 70 | 54 | 2.0 | 2.0 | 0.00 | 0.02 | 0.02 | 40 | 1034.3 |
| 20260502192839 | 70 | 8 | 0.0 | 0.0 | 0.00 | 0.02 | 0.02 | 45 | 1034.6 |
| 20260502192336 | 70 | 342 | 0.0 | 0.0 | 0.00 | 0.02 | 0.02 | 42 | 1034.5 |
| 20260502191833 | 71 | 9 | 0.0 | 0.0 | 0.00 | 0.02 | 0.02 | 43 | 1034.5 |
| 20260502191331 | 71 | 349 | 0.0 | 0.0 | 0.00 | 0.02 | 0.02 | 41 | 1034.5 |
| 20260502190828 | 71 | 63 | 0.0 | 0.0 | 0.00 | 0.02 | 0.02 | 38 | 1034.6 |
| 20260502190326 | 70 | 13 | 1.0 | 1.0 | 0.00 | 0.02 | 0.02 | 45 | 1034.6 |
| 20260502185821 | 70 | 357 | 2.0 | 3.0 | 0.00 | 0.02 | 0.02 | 35 | 1034.6 |
| 20260502185317 | 69 | 22 | 1.0 | 2.0 | 0.00 | 0.02 | 0.02 | 46 | 1035.1 |
| 20260502184814 | 69 | 171 | 3.0 | 3.0 | 0.00 | 0.02 | 0.02 | 39 | 1034.7 |
| 20260502184310 | 70 | 182 | 1.0 | 1.0 | 0.00 | 0.02 | 0.02 | 41 | 1034.7 |
| 20260502183807 | 70 | 26 | 0.0 | 0.0 | 0.00 | 0.02 | 0.02 | 44 | 1034.8 |
| 20260502183303 | 70 | 346 | 0.0 | 1.0 | 0.00 | 0.02 | 0.02 | 36 | 1034.8 |
| 20260502182758 | 70 | 169 | 0.0 | 1.0 | 0.00 | 0.02 | 0.02 | 38 | 1035.3 |
| 20260502182253 | 69 | 29 | 2.0 | 2.0 | 0.00 | 0.02 | 0.02 | 36 | 1035.3 |
| 20260502181749 | 69 | 344 | 1.0 | 1.0 | 0.00 | 0.02 | 0.02 | 46 | 1035.2 |
| 20260502181244 | 68 | 105 | 2.0 | 3.0 | 0.00 | 0.02 | 0.02 | 42 | 1035.2 |
| 20260502180741 | 68 | 34 | 1.0 | 1.0 | 0.00 | 0.02 | 0.02 | 42 | 1035.4 |
| 20260502180238 | 69 | 71 | 1.0 | 2.0 | 0.00 | 0.02 | 0.02 | 43 | 1035.3 |
| 20260502170156 | 65 | 145 | 1.0 | 2.0 | 0.00 | 0.02 | 0.02 | 50 | 1035.6 |
| 20260502164143 | 64 | 349 | 0.0 | 0.0 | 0.00 | 0.02 | 0.02 | 59 | 1035.6 |
| 20260502163638 | 63 | 338 | 0.0 | 1.0 | 0.00 | 0.02 | 0.02 | 62 | 1035.9 |
| 20260502163135 | 62 | 14 | 0.0 | 0.0 | 0.00 | 0.02 | 0.02 | 61 | 1035.6 |
| 20260502162632 | 62 | 329 | 0.0 | 0.0 | 0.00 | 0.02 | 0.02 | 65 | 1035.7 |
| 20260502162129 | 62 | 313 | 0.0 | 0.0 | 0.00 | 0.02 | 0.02 | 63 | 1035.7 |
| 20260502161627 | 61 | 13 | 0.0 | 0.0 | 0.00 | 0.02 | 0.02 | 56 | 1035.8 |
| 20260502161124 | 61 | 154 | 0.0 | 1.0 | 0.00 | 0.02 | 0.02 | 59 | 1035.9 |
| 20260502160621 | 61 | 129 | 1.0 | 1.0 | 0.00 | 0.02 | 0.02 | 60 | 1035.6 |
| 20260502160120 | 61 | 178 | 0.0 | 1.0 | 0.00 | 0.02 | 0.02 | 69 | 1035.6 |
| 20260502152034 | 60 | 65 | 1.0 | 1.0 | 0.00 | 0.02 | 0.02 | 61 | 1035.4 |
| 20260502151531 | 59 | 22 | 0.0 | 0.0 | 0.00 | 0.02 | 0.02 | 78 | 1035.4 |
| 20260502151028 | 58 | 0 | 0.0 | 0.0 | 0.00 | 0.02 | 0.02 | 78 | 1035.3 |
| 20260502150526 | 58 | 1 | 0.0 | 0.0 | 0.00 | 0.02 | 0.02 | 77 | 1035.3 |
| 20260502130410 | 52 | 1 | 0.0 | 0.0 | 0.00 | 0.02 | 0.02 | 89 | 1034.1 |
| 20260502123347 | 51 | 355 | 0.0 | 0.0 | 0.00 | 0.02 | 0.02 | 90 | 1033.6 |
| 20260502122845 | 51 | 355 | 0.0 | 0.0 | 0.00 | 0.02 | 0.02 | 91 | 1033.5 |
| 20260502122340 | 51 | 355 | 0.0 | 0.0 | 0.00 | 0.02 | 0.02 | 92 | 1033.7 |
| 20260502121839 | 51 | 349 | 0.0 | 0.0 | 0.00 | 0.02 | 0.02 | 92 | 1033.5 |
| 20260502121336 | 51 | 358 | 0.0 | 0.0 | 0.00 | 0.02 | 0.02 | 91 | 1033.2 |
| 20260502120833 | 51 | 358 | 0.0 | 0.0 | 0.00 | 0.02 | 0.02 | 91 | 1033.5 |
| 20260502120329 | 50 | 356 | 0.0 | 0.0 | 0.00 | 0.02 | 0.02 | 90 | 1033.3 |
| 20260502115827 | 50 | 348 | 0.0 | 0.0 | 0.00 | 0.02 | 0.02 | 90 | 1033.3 |
| 20260502115324 | 50 | 352 | 0.0 | 0.0 | 0.00 | 0.02 | 0.02 | 91 | 1033.4 |
| 20260502114820 | 50 | 353 | 0.0 | 0.0 | 0.00 | 0.02 | 0.02 | 92 | 1032.9 |
| 20260502114317 | 50 | 354 | 0.0 | 0.0 | 0.00 | 0.02 | 0.02 | 94 | 1032.8 |
| 20260502113814 | 50 | 356 | 0.0 | 0.0 | 0.00 | 0.02 | 0.02 | 95 | 1032.9 |
| 20260502113312 | 50 | 356 | 0.0 | 0.0 | 0.00 | 0.02 | 0.02 | 95 | 1033.0 |
| 20260502112810 | 50 | 358 | 0.0 | 0.0 | 0.00 | 0.02 | 0.02 | 96 | 1033.0 |
| 20260502112307 | 49 | 359 | 0.0 | 0.0 | 0.00 | 0.02 | 0.02 | 97 | 1032.7 |
| 20260502111804 | 49 | 2 | 0.0 | 0.0 | 0.00 | 0.02 | 0.02 | 98 | 1033.2 |
| 20260502111302 | 50 | 5 | 0.0 | 0.0 | 0.00 | 0.02 | 0.02 | 98 | 1033.3 |
| 20260502110759 | 50 | 3 | 0.0 | 0.0 | 0.00 | 0.02 | 0.02 | 99 | 1033.1 |
| 20260502110257 | 50 | 7 | 0.0 | 0.0 | 0.00 | 0.02 | 0.02 | 99 | 1032.9 |
| 20260502105754 | 50 | 19 | 0.0 | 0.0 | 0.00 | 0.02 | 0.02 | 99 | 1033.3 |
| 20260502105250 | 50 | 19 | 0.0 | 0.0 | 0.00 | 0.02 | 0.02 | 99 | 1032.6 |
| 20260502104748 | 50 | 19 | 0.0 | 0.0 | 0.00 | 0.02 | 0.02 | 99 | 1032.7 |
| 20260502104246 | 50 | 22 | 0.0 | 0.0 | 0.00 | 0.02 | 0.02 | 99 | 1032.8 |
| 20260502103743 | 50 | 22 | 0.0 | 0.0 | 0.00 | 0.02 | 0.02 | 99 | 1032.4 |
| 20260502103240 | 50 | 45 | 0.0 | 0.0 | 0.00 | 0.02 | 0.02 | 99 | 1032.6 |
| 20260502102738 | 50 | 46 | 0.0 | 0.0 | 0.00 | 0.02 | 0.02 | 99 | 1032.7 |
| 20260502102233 | 50 | 46 | 0.0 | 0.0 | 0.00 | 0.02 | 0.02 | 99 | 1032.9 |
| 20260502101732 | 50 | 46 | 0.0 | 0.0 | 0.00 | 0.02 | 0.02 | 99 | 1032.6 |
| 20260502101230 | 50 | 46 | 0.0 | 0.0 | 0.00 | 0.02 | 0.02 | 99 | 1032.9 |
| 20260502100727 | 50 | 46 | 0.0 | 0.0 | 0.00 | 0.02 | 0.02 | 99 | 1033.2 |
| 20260502100226 | 50 | 46 | 0.0 | 0.0 | 0.00 | 0.02 | 0.02 | 99 | 1033.2 |
| 20260502091200 | 51 | 46 | 0.0 | 0.0 | 0.00 | 0.02 | 0.02 | 99 | 1032.4 |
| 20260502090657 | 51 | 46 | 0.0 | 0.0 | 0.00 | 0.02 | 0.02 | 99 | 1033.0 |
| 20260502090154 | 51 | 46 | 0.0 | 0.0 | 0.00 | 0.02 | 0.02 | 99 | 1033.1 |
| 20260502071049 | 55 | 51 | 0.0 | 0.0 | 0.00 | 0.01 | 0.01 | 99 | 1032.8 |
| 20260502070548 | 56 | 51 | 0.0 | 0.0 | 0.00 | 0.01 | 0.01 | 99 | 1032.9 |
| 20260502070045 | 56 | 51 | 0.0 | 0.0 | 0.00 | 0.01 | 0.01 | 99 | 1033.2 |
| 20260502065544 | 56 | 51 | 0.0 | 0.0 | 0.00 | 0.01 | 0.01 | 99 | 1033.1 |
| 20260502065041 | 56 | 51 | 0.0 | 0.0 | 0.00 | 0.01 | 0.01 | 99 | 1033.6 |
| 20260502064539 | 57 | 51 | 0.0 | 0.0 | 0.00 | 0.01 | 0.01 | 99 | 1033.5 |
| 20260502064036 | 57 | 51 | 0.0 | 0.0 | 0.00 | 0.01 | 0.01 | 99 | 1033.6 |
| 20260502063534 | 57 | 51 | 0.0 | 0.0 | 0.00 | 0.01 | 0.01 | 99 | 1033.7 |
| 20260502063031 | 56 | 50 | 0.0 | 0.0 | 0.00 | 0.01 | 0.01 | 99 | 1033.4 |
| 20260502062528 | 57 | 50 | 0.0 | 0.0 | 0.00 | 0.01 | 0.01 | 99 | 1033.4 |
| 20260502062026 | 56 | 49 | 0.0 | 0.0 | 0.00 | 0.01 | 0.01 | 99 | 1033.2 |
| 20260502061524 | 56 | 50 | 0.0 | 0.0 | 0.00 | 0.01 | 0.01 | 99 | 1033.3 |
| 20260502061021 | 57 | 50 | 0.0 | 0.0 | 0.00 | 0.01 | 0.01 | 99 | 1033.3 |
| 20260502060516 | 56 | 50 | 0.0 | 0.0 | 0.00 | 0.01 | 0.01 | 99 | 1033.3 |
| 20260502060013 | 56 | 49 | 0.0 | 0.0 | 0.00 | 0.01 | 0.01 | 99 | 1033.4 |
| 20260502055510 | 56 | 49 | 0.0 | 0.0 | 0.00 | 0.01 | 0.01 | 99 | 1033.2 |
| 20260502055009 | 57 | 49 | 0.0 | 0.0 | 0.00 | 0.01 | 0.01 | 99 | 1033.3 |
| 20260502054507 | 56 | 50 | 0.0 | 0.0 | 0.00 | 0.01 | 0.01 | 99 | 1033.3 |
| 20260502054004 | 56 | 49 | 0.0 | 0.0 | 0.00 | 0.01 | 0.01 | 99 | 1033.1 |
| 20260502053501 | 56 | 49 | 0.0 | 0.0 | 0.00 | 0.01 | 0.01 | 99 | 1033.0 |
| 20260502052959 | 56 | 49 | 0.0 | 0.0 | 0.05 | 0.01 | 0.01 | 99 | 1033.0 |
| 20260502052457 | 56 | 49 | 0.0 | 0.0 | 0.05 | 0.01 | 0.01 | 99 | 1033.4 |
| 20260502051955 | 56 | 49 | 0.0 | 0.0 | 0.00 | 0.00 | 0.00 | 99 | 1033.0 |
| 20260502051453 | 56 | 49 | 0.0 | 0.0 | 0.00 | 0.00 | 0.00 | 99 | 1033.2 |
| 20260502050950 | 56 | 49 | 0.0 | 0.0 | 0.00 | 0.00 | 0.00 | 99 | 1033.0 |
| 20260502050446 | 56 | 49 | 0.0 | 0.0 | 0.00 | 0.00 | 0.00 | 99 | 1033.3 |
| 20260502045943 | 56 | 49 | 0.0 | 0.0 | 0.00 | 0.03 | 0.03 | 99 | 1033.2 |
| 20260502045440 | 56 | 49 | 0.0 | 0.0 | 0.00 | 0.03 | 0.03 | 99 | 1033.3 |
| 20260502044937 | 56 | 50 | 0.0 | 0.0 | 0.00 | 0.03 | 0.03 | 99 | 1033.3 |
| 20260502044433 | 56 | 50 | 0.0 | 0.0 | 0.00 | 0.03 | 0.03 | 99 | 1033.4 |
| 20260502043930 | 56 | 50 | 0.0 | 0.0 | 0.00 | 0.03 | 0.03 | 99 | 1033.3 |
| 20260502043428 | 56 | 50 | 0.0 | 0.0 | 0.00 | 0.03 | 0.03 | 99 | 1033.0 |
| 20260502042927 | 56 | 50 | 0.0 | 0.0 | 0.00 | 0.03 | 0.03 | 99 | 1033.1 |
| 20260502042424 | 56 | 50 | 0.0 | 0.0 | 0.00 | 0.03 | 0.03 | 99 | 1033.0 |
| 20260502041921 | 56 | 50 | 0.0 | 0.0 | 0.00 | 0.03 | 0.03 | 99 | 1033.0 |
| 20260502041420 | 56 | 50 | 0.0 | 0.0 | 0.00 | 0.03 | 0.03 | 99 | 1032.9 |
| 20260502040916 | 56 | 50 | 0.0 | 0.0 | 0.00 | 0.03 | 0.03 | 99 | 1033.0 |
| 20260502040413 | 56 | 50 | 0.0 | 0.0 | 0.00 | 0.03 | 0.03 | 99 | 1033.0 |
| 20260502035909 | 56 | 50 | 0.0 | 0.0 | 0.00 | 0.03 | 0.03 | 99 | 1032.8 |
| 20260502035405 | 56 | 50 | 0.0 | 0.0 | 0.00 | 0.03 | 0.03 | 99 | 1032.7 |
| 20260502034903 | 56 | 50 | 0.0 | 0.0 | 0.00 | 0.03 | 0.03 | 99 | 1032.8 |
| 20260502034402 | 56 | 50 | 0.0 | 0.0 | 0.00 | 0.03 | 0.03 | 99 | 1032.8 |
| 20260502033900 | 56 | 50 | 0.0 | 0.0 | 0.00 | 0.03 | 0.03 | 99 | 1032.7 |
| 20260502033357 | 56 | 50 | 0.0 | 0.0 | 0.00 | 0.03 | 0.03 | 99 | 1032.9 |
| 20260502032853 | 56 | 50 | 0.0 | 0.0 | 0.00 | 0.03 | 0.03 | 99 | 1033.1 |
| 20260502032349 | 56 | 50 | 0.0 | 0.0 | 0.00 | 0.03 | 0.03 | 99 | 1033.1 |
| 20260502031847 | 56 | 51 | 0.0 | 0.0 | 0.00 | 0.03 | 0.03 | 99 | 1033.4 |
| 20260502031345 | 56 | 51 | 0.0 | 0.0 | 0.00 | 0.03 | 0.03 | 99 | 1033.4 |
| 20260502030843 | 56 | 51 | 0.0 | 0.0 | 0.00 | 0.03 | 0.03 | 99 | 1033.5 |
| 20260502030341 | 56 | 52 | 0.0 | 0.0 | 0.00 | 0.03 | 0.03 | 99 | 1033.7 |
| 20260502025838 | 56 | 52 | 0.0 | 0.0 | 0.00 | 0.03 | 0.03 | 99 | 1033.6 |
| 20260502025336 | 56 | 52 | 0.0 | 0.0 | 0.00 | 0.03 | 0.03 | 99 | 1033.6 |
| 20260502024834 | 57 | 82 | 0.0 | 0.0 | 0.00 | 0.03 | 0.03 | 99 | 1033.5 |
| 20260502024331 | 57 | 33 | 0.0 | 0.0 | 0.00 | 0.03 | 0.03 | 99 | 1033.5 |
| 20260502023829 | 57 | 8 | 0.0 | 0.0 | 0.00 | 0.03 | 0.03 | 98 | 1033.5 |
| 20260502023327 | 57 | 8 | 0.0 | 0.0 | 0.00 | 0.03 | 0.03 | 98 | 1033.3 |
| 20260502022824 | 57 | 8 | 0.0 | 0.0 | 0.00 | 0.03 | 0.03 | 98 | 1033.4 |
| 20260502022320 | 57 | 9 | 0.0 | 0.0 | 0.00 | 0.03 | 0.03 | 98 | 1034.0 |
| 20260502021817 | 57 | 10 | 0.0 | 0.0 | 0.00 | 0.03 | 0.03 | 97 | 1033.9 |
| 20260502021315 | 57 | 10 | 0.0 | 0.0 | 0.00 | 0.03 | 0.03 | 97 | 1034.0 |
| 20260502020812 | 57 | 10 | 0.0 | 0.0 | 0.00 | 0.03 | 0.03 | 96 | 1033.9 |
| 20260502020309 | 57 | 9 | 0.0 | 0.0 | 0.00 | 0.03 | 0.03 | 96 | 1034.0 |
| 20260502015806 | 57 | 9 | 0.0 | 0.0 | 0.00 | 0.03 | 0.03 | 95 | 1033.9 |